Total_Precipitation_Accumulation
1.20 1.24 1.29 1.27 1.31 1.44 1.56 1.60 1.59 1.53 1.53 1.52 1.26 1.11 1.02 1.04 1.13 1.18 1.30 1.09 0.74 0.58 0.52 0.52 0.57 0.65 0.73 0.87 1.01 1.17 1.31 1.45 1.59 1.76 1.99 2.18 2.35 2.50
1.35 1.43 1.41 1.34 1.39 1.45 1.51 1.62 1.73 1.75 1.64 1.49 1.31 1.19 1.12 0.97 0.99 0.97 1.04 0.91 0.67 0.56 0.50 0.47 0.46 0.48 0.54 0.62 0.70 0.83 0.96 1.14 1.32 1.45 1.58 1.71 1.85 1.98
1.25 1.26 1.25 1.27 1.32 1.26 1.35 1.48 1.64 1.79 1.65 1.54 1.46 1.41 1.34 1.25 1.11 0.91 0.79 0.70 0.63 0.59 0.51 0.46 0.46 0.46 0.46 0.48 0.53 0.61 0.72 0.88 1.05 1.17 1.29 1.47 1.60 1.71
1.28 1.20 1.12 1.19 1.28 1.28 1.37 1.38 1.45 1.67 1.67 1.63 1.61 1.63 1.54 1.36 1.26 1.12 0.91 0.79 0.75 0.69 0.58 0.50 0.44 0.44 0.43 0.44 0.49 0.54 0.63 0.74 0.88 0.99 1.04 1.08 1.23 1.43
1.25 1.18 1.12 1.14 1.17 1.25 1.35 1.38 1.36 1.43 1.58 1.60 1.61 1.70 1.68 1.48 1.31 1.18 1.07 1.08 0.99 0.81 0.63 0.54 0.47 0.44 0.43 0.41 0.49 0.58 0.71 0.73 0.74 0.83 0.93 1.00 1.05 1.11
1.03 0.98 1.02 1.13 1.19 1.19 1.17 1.19 1.23 1.33 1.42 1.47 1.54 1.66 1.72 1.65 1.45 1.32 1.29 1.24 1.14 0.87 0.74 0.61 0.52 0.45 0.41 0.37 0.40 0.53 0.68 0.75 0.81 0.83 0.87 0.93 1.00 1.05
0.87 0.73 0.73 0.90 1.03 1.07 0.99 1.03 1.09 1.17 1.20 1.29 1.38 1.53 1.63 1.73 1.55 1.36 1.30 1.36 1.30 1.15 1.00 0.81 0.68 0.59 0.56 0.52 0.45 0.45 0.50 0.61 0.73 0.87 1.02 1.12 1.17 1.18
0.76 0.71 0.69 0.70 0.71 0.72 0.74 0.78 0.85 0.94 1.06 1.23 1.34 1.41 1.45 1.56 1.66 1.61 1.54 1.50 1.47 1.42 1.44 1.34 1.06 0.97 0.92 0.87 0.70 0.49 0.39 0.46 0.60 0.72 0.96 1.23 1.46 1.53
0.70 0.74 0.60 0.52 0.57 0.56 0.58 0.56 0.55 0.58 0.71 0.94 1.16 1.24 1.37 1.41 1.65 1.69 1.72 1.80 1.79 1.76 1.75 1.77 1.48 1.21 1.04 0.96 0.87 0.63 0.48 0.43 0.50 0.63 0.74 0.94 1.22 1.54
0.67 0.71 0.70 0.67 0.66 0.69 0.67 0.61 0.54 0.50 0.52 0.59 0.79 1.03 1.25 1.49 1.59 1.66 1.74 1.80 1.80 1.67 1.64 1.73 1.63 1.50 1.25 0.95 0.85 0.75 0.63 0.53 0.51 0.59 0.61 0.66 0.79 1.02
0.70 0.71 0.72 0.71 0.71 0.62 0.62 0.62 0.61 0.61 0.51 0.51 0.59 0.80 0.98 1.08 1.31 1.52 1.66 1.59 1.52 1.34 1.21 1.31 1.39 1.44 1.46 1.29 0.98 0.89 0.77 0.64 0.61 0.61 0.60 0.60 0.64 0.71
0.90 0.83 0.69 0.62 0.59 0.51 0.53 0.66 0.63 0.62 0.67 0.62 0.53 0.58 0.70 0.84 0.92 1.03 1.26 1.40 1.30 1.23 1.05 0.98 0.96 1.07 1.19 1.10 0.95 0.90 0.91 0.82 0.68 0.67 0.67 0.67 0.72 0.68
1.09 1.04 0.96 0.79 0.59 0.53 0.51 0.58 0.62 0.66 0.77 0.81 0.78 0.76 0.85 0.96 0.93 0.89 1.00 1.16 1.19 1.02 0.92 1.01 0.95 0.87 0.84 0.85 0.84 0.76 0.80 0.91 0.89 0.79 0.74 0.75 0.80 0.84
1.28 1.23 1.14 0.91 0.69 0.61 0.56 0.55 0.52 0.52 0.61 0.73 0.77 0.75 0.79 0.89 0.97 0.96 0.99 1.03 1.07 0.98 0.94 1.03 1.09 1.02 0.87 0.74 0.70 0.63 0.62 0.71 0.86 1.04 1.12 1.14 1.03 0.99
1.33 1.35 1.12 0.90 0.75 0.61 0.57 0.57 0.51 0.47 0.57 0.63 0.64 0.64 0.65 0.76 0.96 1.09 1.13 1.14 1.11 0.95 0.83 0.85 0.98 1.11 1.08 0.85 0.68 0.61 0.60 0.67 0.79 0.97 1.09 1.20 1.27 1.26
1.16 1.21 1.08 0.92 0.80 0.70 0.65 0.62 0.58 0.59 0.67 0.69 0.70 0.74 0.76 0.84 0.95 1.05 1.15 1.19 1.15 0.95 0.84 0.84 0.90 1.06 1.10 0.94 0.79 0.71 0.69 0.75 0.81 0.99 1.18 1.27 1.30 1.37
1.19 1.22 1.24 1.12 1.00 0.90 0.86 0.88 0.88 0.83 0.77 0.79 0.83 0.86 0.85 0.87 0.93 1.01 1.08 1.12 1.06 0.89 0.76 0.82 0.92 1.06 1.07 1.03 0.94 0.76 0.72 0.70 0.71 0.84 1.06 1.16 1.24 1.33
1.11 1.14 1.24 1.24 1.16 1.08 1.03 1.04 1.04 0.99 0.93 0.94 0.93 0.92 0.91 0.89 0.92 0.97 1.01 1.02 0.99 0.90 0.80 0.76 0.89 1.04 1.09 0.98 0.81 0.72 0.68 0.62 0.66 0.80 0.91 0.92 0.88 0.96
0.98 1.03 1.13 1.19 1.15 1.13 1.08 1.06 1.02 1.05 1.07 1.03 0.99 0.99 0.98 0.93 0.91 0.94 0.95 1.01 1.00 0.98 0.95 0.94 0.93 0.92 0.88 0.75 0.64 0.59 0.66 0.66 0.73 0.79 0.86 0.81 0.73 0.77
0.88 0.94 1.00 1.05 1.07 1.09 1.09 1.09 1.06 1.07 1.06 1.04 1.00 0.99 0.99 0.94 0.94 0.95 0.92 0.94 1.00 1.02 1.03 0.96 0.90 0.84 0.76 0.76 0.76 0.69 0.60 0.73 0.79 0.75 0.73 0.76 0.73 0.68
0.84 0.88 0.90 0.92 0.96 1.00 1.01 1.05 1.05 1.01 1.00 1.03 1.00 0.96 0.98 0.99 0.98 0.98 0.98 0.98 0.99 1.01 0.98 0.85 0.80 0.92 1.04 1.05 0.91 0.77 0.74 0.71 0.81 0.82 0.81 0.81 0.78 0.75
0.82 0.85 0.81 0.80 0.86 0.92 0.97 1.02 1.02 1.03 1.05 1.02 1.00 0.98 0.97 0.97 0.95 0.95 0.99 1.00 1.00 1.00 0.97 0.99 1.04 1.09 1.10 0.98 0.84 0.84 0.90 0.86 0.84 0.87 0.82 0.82 0.77 0.68
0.78 0.73 0.70 0.72 0.77 0.83 0.87 0.90 0.94 1.01 0.99 0.99 1.02 0.99 0.94 0.95 0.94 0.95 0.94 0.95 0.98 1.02 1.10 1.14 1.11 1.04 1.00 1.00 0.93 0.87 0.87 0.92 0.95 0.93 0.82 0.74 0.67 0.59